User: anonymous   Login
Location: Unspecified
(0.0000°N, 0.0000°E)
Time: 01:56:32
(UTC+00:00)
Language:

STARLINK-6372 - Orbit

View from above orbital plane
View from above orbital plane
View from above satellite
View from above satellite

Ground track
Ground track

The orbit is defined by the following mean orbital elements,

1 57348U          26145.44870902 +.00000000 +00000-0 -96190-5 0 00003
2 57348  43.0016 175.6733 0000873 276.3279  83.7473 15.27575865    02
Epoch (UTC): 25 May 2026 10:46:08
Eccentricity: 0.0000873
inclination: 43.0016°
perigee height: 482 km
apogee height: 484 km
right ascension of ascending node: 175.6733°
argument of perigee: 276.3279°
revolutions per day: 15.27575865
mean anomaly at epoch: 83.7473°

The dashed part of the orbit path shows where the satellite is in the earth's shadow,  

DLR